Weather History for Nuiqsut, AK

Change the Weather History Date:

Wednesday, February 20, 2013

  Actual Average (PAKU) Record (PAKU)
Temperature  
Mean Temperature -31 °F -  
Max Temperature -27 °F -12 °F 25 °F (1993)
Min Temperature -35 °F -19 °F -47 °F (2004)
Degree Days  
Heating Degree Days 96    
Moisture  
Dew Point -33 °F    
Average Humidity 76    
Maximum Humidity 83    
Minimum Humidity 73    
Precipitation  
Precipitation 0.00 in - - ()
Sea Level Pressure  
Sea Level Pressure 30.25 in    
Wind  
Wind Speed 13 mph (NE)    
Max Wind Speed 15 mph    
Max Gust Speed -    
Visibility 3 miles    
Events      
Averages and records for this station are not official NWS values.
T = Trace of Precipitation, MM = Missing Value Source: NWS Daily Summary

Daily Weather History Graph

Daily Weather History Graph

Search for Another Location

Airport:

Trip Planner

Search our weather history database for the weather conditions in past years. The results will help you decide how hot, cold, wet, or windy it might be!

Date:

Astronomy

Feb. 20, 2013 Rise Set
Actual Time 9:12 AM AKST 5:24 PM AKST
Civil Twilight 8:06 AM AKST 6:30 PM AKST
Nautical Twilight 6:54 AM AKST 7:42 PM AKST
Astronomical Twilight 5:42 AM AKST 8:55 PM AKST
Moon No Moon Rise No Moon Set
Length of Visible Light 10h 24m
Length of Day
8h 12m
Waxing Gibbous, 77% of the Moon is Illuminated
Feb 20
Waxing Gibbous
Feb 25
Full
Mar 4
Last Quarter
Mar 11
New
Mar 19
First Quarter

Hourly Weather History & Observations

Time (AKST) Temp. Windchill Dew Point Humidity Pressure Visibility Wind Dir Wind Speed Gust Speed Precip Events Conditions
12:53 AM -35.0 °F - - N/A% 30.34 in 5.0 mi North - - N/A   Haze
1:53 AM -34.1 °F - - N/A% 30.33 in 4.0 mi North - - N/A   Haze
3:53 AM -34.1 °F - - N/A% 30.31 in 5.0 mi North - - N/A   Haze
5:02 AM -32.8 °F - - N/A% 30.31 in 2.5 mi North - - N/A   Clear
5:53 AM -33.0 °F - - N/A% 30.30 in 2.5 mi North - - N/A   Clear
6:46 AM -32.8 °F - - N/A% 30.29 in 3.0 mi North - - N/A   Clear
6:53 AM -33.0 °F - - N/A% 30.30 in 3.0 mi North - - N/A   Clear
7:38 AM -34.6 °F - - N/A% 30.29 in 2.5 mi North - - N/A   Clear
7:48 AM -32.8 °F - - N/A% 30.29 in 3.0 mi North - - N/A   Clear
7:53 AM -33.0 °F - - N/A% 30.29 in 3.0 mi North - - N/A   Clear
8:53 AM -33.0 °F - - N/A% 30.28 in 4.0 mi North - - N/A   Haze
9:15 AM -32.8 °F - - N/A% 30.26 in 2.5 mi North - - N/A   Clear
9:53 AM -32.1 °F - - N/A% 30.26 in 1.8 mi North - - N/A   Clear
10:51 AM -29.2 °F - -34.6 °F 75% 30.26 in 2.0 mi North - - N/A   Haze
10:53 AM -29.0 °F - -35.0 °F 73% 30.26 in 2.0 mi North - - N/A   Haze
11:53 AM -29.0 °F - -34.1 °F 77% 30.26 in 2.5 mi North - - N/A   Haze
12:53 PM -27.9 °F - -33.0 °F 77% 30.25 in 2.5 mi North - - N/A   Haze
1:53 PM -27.0 °F - -32.1 °F 77% 30.25 in - North - - N/A   Unknown
2:53 PM -27.0 °F - -32.1 °F 77% 30.24 in 2.5 mi North - - N/A   Haze
3:32 PM -27.4 °F - -32.8 °F 75% 30.22 in 3.0 mi North - - N/A   Haze
4:23 PM -27.4 °F - -32.8 °F 75% 30.22 in 2.5 mi North - - N/A   Haze
4:45 PM -27.4 °F - -32.8 °F 75% 30.22 in 3.0 mi North - - N/A   Haze
4:53 PM -27.0 °F - -32.1 °F 77% 30.23 in 2.5 mi North - - N/A   Haze
5:02 PM -27.4 °F - -32.8 °F 75% 30.23 in 2.0 mi North - - N/A   Haze
5:45 PM -27.4 °F -52.5 °F -32.8 °F 75% 30.23 in 1.8 mi NE 12.7 mph - N/A   Haze
5:53 PM -27.9 °F -54.2 °F -33.0 °F 77% 30.23 in 1.8 mi NE 13.8 mph - N/A   Haze
6:02 PM -27.4 °F -54.5 °F -32.8 °F 75% 30.23 in 2.5 mi NE 15.0 mph - N/A   Haze
6:24 PM -27.4 °F -54.5 °F -32.8 °F 75% 30.23 in 3.0 mi NE 15.0 mph - N/A   Haze
6:53 PM -27.9 °F -54.2 °F -33.0 °F 77% 30.23 in 3.0 mi NE 13.8 mph - N/A   Haze
7:19 PM -27.4 °F -54.5 °F -32.8 °F 75% 30.22 in 2.5 mi NE 15.0 mph - N/A   Haze
7:44 PM -27.4 °F -52.5 °F -32.8 °F 75% 30.22 in 3.0 mi NE 12.7 mph - N/A   Haze
7:51 PM -27.4 °F -51.4 °F -32.8 °F 75% 30.22 in 2.5 mi NE 11.5 mph - N/A   Haze
7:52 PM -27.9 °F -52.1 °F -33.0 °F 77% 30.23 in 2.5 mi NE 11.5 mph - N/A   Haze
7:58 PM -27.4 °F -52.5 °F -32.8 °F 75% 30.22 in 3.0 mi NE 12.7 mph - N/A   Haze
8:07 PM -27.4 °F -52.5 °F -32.8 °F 75% 30.22 in 2.5 mi NE 12.7 mph - N/A   Haze
8:27 PM -29.2 °F -53.7 °F -32.8 °F 83% 30.22 in 3.0 mi NE 11.5 mph - N/A   Mostly Cloudy
8:38 PM -29.2 °F -52.5 °F -34.6 °F 75% 30.22 in 2.0 mi NE 10.4 mph - N/A   Haze
8:51 PM -29.2 °F -54.8 °F -34.6 °F 75% 30.22 in 3.0 mi NE 12.7 mph - N/A   Haze
8:53 PM -29.0 °F -54.6 °F -34.1 °F 77% 30.23 in 3.0 mi NE 12.7 mph - N/A   Haze
9:02 PM -29.2 °F -54.8 °F -34.6 °F 75% 30.22 in 2.0 mi NE 12.7 mph - N/A   Haze
9:15 PM -29.2 °F -55.8 °F -34.6 °F 75% 30.21 in 3.0 mi NE 13.8 mph - N/A   Haze
9:32 PM -29.2 °F -56.8 °F -34.6 °F 75% 30.21 in 2.5 mi NE 15.0 mph - N/A   Haze
9:42 PM -29.2 °F -56.8 °F -34.6 °F 75% 30.21 in 4.0 mi NE 15.0 mph - N/A   Haze
9:53 PM -29.0 °F -56.5 °F -34.1 °F 77% 30.22 in 4.0 mi NE 15.0 mph - N/A   Haze
10:53 PM -29.9 °F -55.7 °F - N/A% 30.22 in 5.0 mi NE 12.7 mph - N/A   Haze
11:53 PM -29.9 °F - - N/A% 30.23 in 5.0 mi North - - N/A   Haze